Weather History for KCTY - June, 2014

Change the Weather History Date:

Saturday, June 7, 2014

  Actual Average Record
Temperature  
Mean Temperature 79 °F 79 °F  
Max Temperature 89 °F 91 °F 97 °F (2008)
Min Temperature 68 °F 68 °F 57 °F (2006)
Degree Days  
Heating Degree Days 0 0  
Month to date heating degree days 0 0  
Since 1 June heating degree days 0 0  
Since 1 July heating degree days 1181 1306  
Cooling Degree Days 14 14  
Month to date cooling degree days 91 97  
Year to date cooling degree days 583 576  
Since 1 June cooling degree days 91 97  
Growing Degree Days 28 (Base 50)    
Moisture  
Dew Point 70 °F    
Average Humidity 77    
Maximum Humidity 94    
Minimum Humidity 56    
Precipitation  
Precipitation 0.03 in 0.14 in 0.90 in (2004)
Month to date precipitation 0.32 0.80  
Year to date precipitation 25.82 17.97  
Sea Level Pressure  
Sea Level Pressure 29.97 in    
Wind  
Wind Speed 4 mph (WNW)    
Max Wind Speed 30 mph    
Max Gust Speed 50 mph    
T = Trace of Precipitation, MM = Missing Value Source: NWS Daily Summary

Daily Weather History Graph

Daily Weather History Graph

Search for Another Location

Airport or City:

Trip Planner

Search our weather history database for the weather conditions in past years. The results will help you decide how hot, cold, wet, or windy it might be!

Date:

Astronomy

Jun. 07, 2014 Rise Set
Actual Time 6:31 AM EDT 8:31 PM EDT
Civil Twilight 6:04 AM EDT 8:58 PM EDT
Nautical Twilight 5:31 AM EDT 9:31 PM EDT
Astronomical Twilight 4:56 AM EDT 10:06 PM EDT
Moon 3:10 PM EDT (6/7) 2:27 AM EDT (6/7)
Length of Visible Light 14h 53m
Length of Day
13h 59m
Waxing Gibbous, 67% of the Moon is Illuminated
Jun 7
Waxing Gibbous
Jun 13
Full
Jun 19
Last Quarter
Jun 27
New
Jul 5
First Quarter

Hourly Weather History & Observations

Time (EDT) Temp. Heat Index Dew Point Humidity Pressure Visibility Wind Dir Wind Speed Gust Speed Precip Events Conditions
12:53 AM 77.0 °F - 73.0 °F 88% 30.01 in - West 4.6 mph - N/A   Unknown
3:54 AM 69.1 °F - 66.0 °F 90% 29.86 in - Variable 4.6 mph 32.2 mph N/A   Unknown
4:53 AM 69.1 °F - 66.0 °F 90% 29.91 in - North 4.6 mph - N/A   Unknown
5:53 AM 68.0 °F - 66.0 °F 93% 29.95 in - North 4.6 mph - N/A   Unknown
6:53 AM 68.0 °F - 66.0 °F 93% 29.98 in - Calm Calm - N/A   Unknown
7:53 AM 70.0 °F - 66.9 °F 90% 30.01 in - North 3.5 mph - 0.01 in   Unknown
8:53 AM 73.9 °F - 68.0 °F 82% 30.03 in - NNW 3.5 mph - N/A   Unknown
9:53 AM 78.1 °F - 69.1 °F 74% 30.04 in - North 3.5 mph - N/A   Unknown
10:53 AM 80.6 °F 84.6 °F 71.6 °F 74% 30.03 in - West 4.6 mph - N/A   Unknown
11:53 AM 84.9 °F 90.7 °F 72.0 °F 65% 30.01 in - Variable 6.9 mph - N/A   Unknown
12:53 PM 87.1 °F 92.8 °F 71.1 °F 59% 30.01 in - WNW 9.2 mph - N/A   Unknown
1:53 PM 87.1 °F 92.8 °F 71.1 °F 59% 29.98 in - North - - N/A   Unknown
2:53 PM 89.1 °F 96.0 °F 72.0 °F 57% 29.97 in - WNW 9.2 mph - N/A   Unknown
3:53 PM 88.0 °F 93.8 °F 71.1 °F 57% 29.94 in - WSW 8.1 mph - N/A   Unknown
4:53 PM 88.0 °F 95.6 °F 73.0 °F 61% 29.92 in - SW 9.2 mph - N/A   Unknown
5:53 PM 84.9 °F 91.4 °F 73.0 °F 67% 29.95 in - West 6.9 mph - N/A   Unknown
6:53 PM 81.0 °F 84.1 °F 69.1 °F 67% 29.95 in - Calm Calm - N/A   Unknown
7:53 PM 80.1 °F 83.6 °F 71.1 °F 74% 29.93 in - Calm Calm - N/A   Unknown
8:53 PM 79.0 °F - 72.0 °F 79% 29.95 in - West 3.5 mph - 0.01 in   Unknown
9:53 PM 78.1 °F - 75.0 °F 90% 29.97 in - Calm Calm - 0.01 in   Unknown
10:53 PM 78.1 °F - 73.9 °F 87% 29.98 in - Calm Calm - N/A   Unknown
11:53 PM 75.9 °F - 73.9 °F 94% 29.98 in - Calm Calm - N/A   Unknown